Regional Weather Roundup
Issued by NWS

Home | Current Version | Previous Version | Graphics & Text | Print | Product List | Glossary On
Versions: 1 2 3 4 5 6 7 8 9 10 11 12 13 14 15 16 17 18 19 20 21 22 23 24 25 26 27 28 29 30 31 32 33 34 35 36 37 38 39 40 41 42 43 44 45 46 47 48 49 50
000
ASUS43 KTOP 251959
RWRKS

WEATHER ROUNDUP FOR KANSAS
NATIONAL WEATHER SERVICE GOODLAND KS
300 PM CDT WED APR 25 2018

NOTE:  "FAIR" INDICATES FEW OR NO CLOUDS BELOW 12,000 FEET WITH NO
SIGNIFICANT WEATHER AND/OR OBSTRUCTIONS TO VISIBILITY.

KSZ001>006-013>018-027>032-041>047-252100-
NORTHWEST KANSAS

CITY           SKY/WX    TMP DP  RH WIND       PRES   REMARKS
GOODLAND       SUNNY     55  30  38 VRB6G18   30.20F
HAYS           PTSUNNY   55  32  41 N18       30.19F
HILL CITY      MOSUNNY   56  36  47 N15       30.20F
RUSSELL        CLOUDY    52  40  63 N17       30.18F
$$

KSZ061>065-074>080-084>089-252100-
SOUTHWEST KANSAS

CITY           SKY/WX    TMP DP  RH WIND       PRES   REMARKS
DODGE CITY     CLOUDY    52  36  54 N17G25    30.20F
GARDEN CITY    CLOUDY    54  35  48 N15G26    30.20F
GREAT BEND     CLOUDY    50  40  68 N16       30.19F
LIBERAL        MOSUNNY   53  37  54 N16       30.23F
$$

KSZ066>073-081>083-090>101-252100-
SOUTHEAST KANSAS

CITY           SKY/WX    TMP DP  RH WIND       PRES   REMARKS
CHANUTE        LGT RAIN  52  51  97 N8        30.08F
COFFEYVILLE    LGT RAIN  52  51  97 NW7       30.08F FOG
HUTCHINSON     CLOUDY    47  43  86 NW14      30.16F
NEWTON         CLOUDY    45  43  93 N14       30.15S
PARSONS        LGT RAIN  53  52  96 NW8       30.08F
WICHITA INTL   CLOUDY    47  43  86 NW22      30.15F
WICHITA JABRA  LGT RAIN  46  46 100 NW13      30.14F FOG
WICHITA MCCONL LGT RAIN  46  46 100 N15G22    30.14
WINFIELD       CLOUDY    48  46  93 N17       30.14F
$$

KSZ007>012-019>026-033>040-048>060-102>105-252100-
NORTHEAST KANSAS

CITY           SKY/WX    TMP DP  RH WIND       PRES   REMARKS
CONCORDIA      CLOUDY    49  41  74 N9        30.18F
EMPORIA        LGT RAIN  48  46  93 N13G20    30.11F FOG
LAWRENCE       LGT RAIN  49  47  93 N7        30.12S
MANHATTAN      LGT RAIN  49  45  86 N10       30.16S
OLATHE IND     LGT RAIN  49  47  93 N10       30.11F FOG
OLATHE EXE     LGT RAIN  48  47  96 NE13      30.10F
SALINA         CLOUDY    48  44  86 N14       30.18F
TOPEKA BILLARD LGT RAIN  49  48  97 N10       30.12F
TOPEKA FORBES  LGT RAIN  50  47  89 N8        30.12F FOG
$$



USA.gov is the U.S. government's official web portal to all federal, state and local government web resources and services.